Slayton, MN

8:35 AM CST on November 21, 2017 (GMT -0600)
Slayton

Weather History for KDVP - December, 2012

Change the Weather History Date:

Friday, December 14, 2012

  Actual Average (KOTG) Record (KOTG)
Temperature  
Mean Temperature 26 °F -  
Max Temperature 39 °F 27 °F 53 °F (1998)
Min Temperature 12 °F 13 °F -18 °F (1985)
Degree Days  
Heating Degree Days 40    
Moisture  
Dew Point 24 °F    
Average Humidity 85    
Maximum Humidity 97    
Minimum Humidity 66    
Precipitation  
Precipitation 0.00 in - - ()
Sea Level Pressure  
Sea Level Pressure 29.88 in    
Wind  
Wind Speed 6 mph (SE)    
Max Wind Speed 20 mph    
Max Gust Speed -    
Visibility 8 miles    
Events      
Averages and records for this station are not official NWS values.
T = Trace of Precipitation, MM = Missing Value Source: NWS Daily Summary

Daily Weather History Graph

Daily Weather History Graph

Search for Another Location

Airport or City:

Trip Planner

Search our weather history database for the weather conditions in past years. The results will help you decide how hot, cold, wet, or windy it might be!

Date:

Astronomy

Dec. 14, 2012 Rise Set
Actual Time 7:50 AM CST 4:45 PM CST
Civil Twilight 7:17 AM CST 5:18 PM CST
Nautical Twilight 6:41 AM CST 5:55 PM CST
Astronomical Twilight 6:05 AM CST 6:30 PM CST
Moon 8:54 AM CST (12/14) 6:41 PM CST (12/14)
Length of Visible Light 10h 01m
Length of Day
8h 55m
Waxing Crescent, 3% of the Moon is Illuminated
Dec 14
Waxing Crescent
Dec 19
First Quarter
Dec 28
Full
Jan 4
Last Quarter
Jan 11
New

Hourly Weather History & Observations

Time (CST) Temp. Windchill Dew Point Humidity Pressure Visibility Wind Dir Wind Speed Gust Speed Precip Events Conditions
12:15 AM 13.8 °F - 12.9 °F 96% 30.08 in 4.0 mi Calm Calm - N/A   Clear
12:35 AM 13.1 °F - 12.2 °F 96% 30.07 in 5.0 mi Calm Calm - N/A   Clear
12:55 AM 12.7 °F - 11.3 °F 94% 30.07 in 5.0 mi Calm Calm - N/A   Clear
1:14 AM 13.6 °F - 12.6 °F 95% 30.06 in 4.0 mi Calm Calm - N/A   Clear
1:35 AM 13.6 °F - 12.4 °F 95% 30.05 in 4.0 mi Calm Calm - N/A   Clear
1:55 AM 14.7 °F - 13.6 °F 95% 30.06 in 4.0 mi Calm Calm - N/A   Clear
2:15 AM 15.3 °F 9.6 °F 14.4 °F 96% 30.07 in 4.0 mi SSE 3.5 mph - N/A   Clear
2:35 AM 15.1 °F 7.7 °F 14.4 °F 97% 30.07 in 3.0 mi SSE 4.6 mph - N/A   Clear
2:55 AM 14.2 °F 6.7 °F 13.3 °F 96% 30.07 in 4.0 mi SSE 4.6 mph - N/A   Clear
3:15 AM 14.2 °F 6.7 °F 13.3 °F 96% 30.06 in 4.0 mi SSE 4.6 mph - N/A   Clear
3:35 AM 13.8 °F 6.2 °F 12.6 °F 95% 30.05 in 4.0 mi SE 4.6 mph - N/A   Clear
3:55 AM 13.3 °F 5.6 °F 12.4 °F 96% 30.04 in 4.0 mi SSE 4.6 mph - N/A   Clear
4:15 AM 13.6 °F 6.0 °F 12.6 °F 95% 30.03 in 4.0 mi SSE 4.6 mph - N/A   Clear
4:35 AM 14.4 °F 6.9 °F 13.5 °F 96% 30.04 in 4.0 mi South 4.6 mph - N/A   Clear
4:55 AM 12.9 °F 3.8 °F 11.3 °F 93% 30.03 in 5.0 mi SSE 5.8 mph - N/A   Clear
5:15 AM 12.2 °F 4.3 °F 10.8 °F 94% 30.02 in 5.0 mi SSE 4.6 mph - N/A   Clear
5:35 AM 12.7 °F 5.0 °F 11.7 °F 95% 30.01 in 4.0 mi SE 4.6 mph - N/A   Clear
5:55 AM 13.8 °F 4.9 °F 12.9 °F 96% 30.00 in 4.0 mi SE 5.8 mph - N/A   Clear
6:15 AM 14.5 °F 7.1 °F 13.5 °F 95% 29.99 in 5.0 mi SSE 4.6 mph - N/A   Clear
6:35 AM 14.4 °F 6.9 °F 13.5 °F 96% 30.00 in 5.0 mi South 4.6 mph - N/A   Clear
6:55 AM 15.1 °F 5.2 °F 14.0 °F 95% 29.99 in 5.0 mi South 6.9 mph - N/A   Clear
7:15 AM 14.9 °F 5.0 °F 13.6 °F 95% 29.99 in 5.0 mi SSE 6.9 mph - N/A   Clear
7:35 AM 15.4 °F 4.6 °F 14.0 °F 94% 29.98 in 5.0 mi SSE 8.1 mph - N/A   Clear
7:55 AM 16.2 °F 7.6 °F 14.9 °F 95% 29.98 in 5.0 mi SSE 5.8 mph - N/A   Clear
8:15 AM 16.3 °F 9.2 °F 15.1 °F 95% 29.98 in 5.0 mi SSE 4.6 mph - N/A   Clear
8:35 AM 15.6 °F 8.3 °F 14.5 °F 95% 29.97 in 4.0 mi SSE 4.6 mph - N/A   Clear
8:54 AM 18.9 °F 12.1 °F 18.0 °F 96% 29.97 in 4.0 mi SSE 4.6 mph - N/A   Clear
9:15 AM 20.3 °F 11.5 °F 19.2 °F 96% 29.97 in 5.0 mi SSE 6.9 mph - N/A   Clear
9:35 AM 22.6 °F 14.3 °F 21.6 °F 96% 29.96 in 5.0 mi SSE 6.9 mph - N/A   Clear
9:54 AM 25.0 °F 15.5 °F 22.8 °F 91% 29.95 in 7.0 mi SSE 9.2 mph - N/A   Clear
10:15 AM 28.0 °F 17.5 °F 24.3 °F 86% 29.95 in 7.0 mi SSE 12.7 mph - N/A   Clear
10:35 AM 31.1 °F 22.4 °F 25.3 °F 79% 29.95 in 7.0 mi SSE 10.4 mph - N/A   Clear
10:54 AM 33.3 °F 24.6 °F 26.4 °F 76% 29.94 in 10.0 mi SSE 11.5 mph - N/A   Clear
11:15 AM 36.1 °F 26.9 °F 26.6 °F 68% 29.93 in 10.0 mi SSE 15.0 mph - N/A   Clear
11:35 AM 37.4 °F 29.3 °F 27.1 °F 66% 29.93 in 10.0 mi SSE 12.7 mph - N/A   Clear
11:55 AM 37.8 °F 30.2 °F 27.9 °F 67% 29.90 in 10.0 mi SSE 11.5 mph - N/A   Clear
12:15 PM 37.9 °F 30.0 °F 28.0 °F 68% 29.88 in 10.0 mi SSE 12.7 mph - N/A   Clear
12:35 PM 38.3 °F 31.9 °F 28.6 °F 68% 29.87 in 10.0 mi SE 9.2 mph - N/A   Clear
12:55 PM 38.5 °F 31.1 °F 29.3 °F 70% 29.86 in 10.0 mi SE 11.5 mph - N/A   Clear
1:15 PM 37.0 °F 29.8 °F 29.1 °F 73% 29.84 in 10.0 mi SE 10.4 mph - N/A   Clear
1:35 PM 37.8 °F 30.7 °F 29.8 °F 73% 29.83 in 10.0 mi SE 10.4 mph - N/A   Clear
1:55 PM 38.5 °F 30.7 °F 30.0 °F 72% 29.81 in 10.0 mi ESE 12.7 mph - N/A   Clear
2:15 PM 39.6 °F 33.0 °F 30.2 °F 69% 29.81 in 10.0 mi SE 10.4 mph - N/A   Clear
2:35 PM 38.5 °F 31.1 °F 30.2 °F 72% 29.79 in 10.0 mi ESE 11.5 mph - N/A   Clear
2:55 PM 38.7 °F 31.4 °F 30.6 °F 73% 29.79 in 10.0 mi ESE 11.5 mph - N/A   Clear
3:15 PM 37.9 °F 31.5 °F 30.9 °F 76% 29.78 in 10.0 mi ESE 9.2 mph - N/A   Clear
3:35 PM 37.6 °F 31.0 °F 31.3 °F 78% 29.78 in 10.0 mi ESE 9.2 mph - N/A   Clear
3:55 PM 37.4 °F 30.3 °F 31.6 °F 80% 29.78 in 10.0 mi SE 10.4 mph - N/A   Clear
4:15 PM 36.1 °F 28.7 °F 32.0 °F 85% 29.78 in 10.0 mi SE 10.4 mph - N/A   Clear
4:35 PM 36.1 °F 29.3 °F 31.8 °F 84% 29.77 in 10.0 mi SE 9.2 mph - N/A   Clear
4:55 PM 36.7 °F 28.9 °F 31.5 °F 81% 29.76 in 10.0 mi SE 11.5 mph - N/A   Clear
5:15 PM 37.0 °F 29.8 °F 31.1 °F 79% 29.76 in 10.0 mi SE 10.4 mph - N/A   Clear
5:35 PM 35.6 °F 28.0 °F 31.6 °F 85% 29.76 in 10.0 mi ESE 10.4 mph - N/A   Clear
5:55 PM 35.6 °F 29.2 °F 31.6 °F 85% 29.76 in 10.0 mi SE 8.1 mph - N/A   Clear
6:15 PM 36.1 °F 29.3 °F 31.6 °F 84% 29.75 in 10.0 mi SE 9.2 mph - N/A   Clear
6:35 PM 34.7 °F 26.9 °F 31.8 °F 89% 29.75 in 10.0 mi SE 10.4 mph - N/A   Clear
6:55 PM 35.1 °F 26.9 °F 31.8 °F 88% 29.74 in 10.0 mi SE 11.5 mph - N/A   Clear
7:14 PM 35.4 °F 27.3 °F 31.8 °F 87% 29.74 in 10.0 mi SE 11.5 mph - N/A   Clear
7:35 PM 36.7 °F 29.4 °F 31.5 °F 81% 29.74 in 10.0 mi SSE 10.4 mph - N/A   Clear
7:55 PM 36.5 °F 29.2 °F 31.5 °F 82% 29.72 in 10.0 mi SE 10.4 mph - N/A   Clear
8:14 PM 36.9 °F 28.7 °F 31.5 °F 81% 29.72 in 10.0 mi SSE 12.7 mph - N/A   Clear
8:35 PM 36.5 °F 28.7 °F 31.6 °F 83% 29.72 in 10.0 mi SSE 11.5 mph - N/A   Clear
8:55 PM 37.9 °F 28.2 °F 32.0 °F 79% 29.70 in 10.0 mi SSE 18.4 mph - N/A   Clear
9:15 PM 38.3 °F 29.0 °F 32.0 °F 78% 29.70 in 10.0 mi SSE 17.3 mph - N/A   Clear
9:35 PM 37.8 °F 28.0 °F 32.0 °F 80% 29.70 in 10.0 mi SSE 18.4 mph - N/A   Mostly Cloudy
9:55 PM 38.5 °F 28.6 °F 32.0 °F 78% 29.68 in 10.0 mi SSE 19.6 mph - N/A   Mostly Cloudy
10:15 PM 37.9 °F 29.6 °F 32.0 °F 79% 29.68 in 10.0 mi SSE 13.8 mph - N/A   Scattered Clouds
10:35 PM 38.3 °F 31.9 °F 32.2 °F 79% 29.67 in 10.0 mi SSE 9.2 mph - N/A   Scattered Clouds
10:55 PM 37.4 °F 30.8 °F 32.4 °F 82% 29.66 in 10.0 mi SSE 9.2 mph - N/A   Scattered Clouds
11:15 PM 37.6 °F 30.5 °F 32.5 °F 82% 29.66 in 10.0 mi SSE 10.4 mph - N/A   Mostly Cloudy
11:35 PM 37.0 °F 30.4 °F 32.5 °F 84% 29.66 in 10.0 mi SSE 9.2 mph - N/A   Overcast
11:55 PM 36.1 °F 32.3 °F 32.5 °F 87% 29.65 in 10.0 mi ESE 4.6 mph - N/A   Overcast